Retour au catalogue

COSMOS 2491 DEB

LostPO
NORAD 57569·DEBRIS·🇷🇺 Russia

Lancé Dec 25, 2013 depuis Plesetsk Cosmodrome

Loading…

Prochains Passages (prochaines 24 heures)

TLE

PériméSource: Space-Track

Époque: Jul 4, 2026, 14:18 UTC

1 57569U 13076BG  26185.59615876  .00002482  00000-0  15322-1 0  9998
2 57569  82.4704 136.5912 0003954 239.9908 120.0786 12.54544981144665

Suivez COSMOS 2491 DEB en temps réel avec AllMySat

Download on the App Store